Details From KPVD - Theodore Francis Green State
To KBID - Block Island State
Flight Number -
Tags Routegen Generated
Created
Modified
Stats Distance 37 nm / 69 km
Max Altitude 100 ft / 30 m
Waypoints 5
Social Downloads 1
Likes 0
Share VATSIM

Download

Looking for another format? Having issues loading an existing format? Contact us
Advertisement - Login to hide

Notes

Departing runway 21 KPVD. Arriving runway 8 KBID.

Route

KPVD +41.65_-071.49 +41.41_-071.48 +41.18_-071.48 KBID

ID Type Via Altitude Latitude Longitude Leg Dist Tot Dist Heading (true) Name
O KPVD APT - 0 ft / 0 m 41.71382˚ -71.43496˚ - 0 nm - -
+41.65_-071.49 LATLON - 100 ft / 30 m 41.65249˚ -71.48639˚ 4 nm 4 nm 212° / 212° -
+41.41_-071.48 LATLON - 100 ft / 30 m 41.41441˚ -71.48206˚ 14 nm 18 nm 179° / 179° -
+41.18_-071.48 LATLON - 100 ft / 30 m 41.17633˚ -71.47774˚ 14 nm 32 nm 179° / 179° -
O KBID APT - 0 ft / 0 m 41.16849˚ -71.57331˚ 4 nm 37 nm 264° / 264° -

Altitude Profile

Advertisement - Login to hide

KPVD

Details ICAO KPVD (PVD)
Name THEODORE FRANCIS GREEN STATE
Region United States
Timezone America/New_York (UTC-4.0)
Stats Elevation 55 ft / 17 m (AMSL)
Location 41.723655° -71.426600°
Runways 2
Magnetic Variation 14.313° W

METAR

KPVD 211051Z 35007KT 10SM FEW100 FEW300 15/09 A3014 RMK AO2 SLP205 T01500089

Decode

TAF

TAF AMD KPVD 210837Z 2109/2206 01005KT P6SM FEW250 FM211600 00000KT P6SM SKC FM211700 18006KT P6SM FEW250 FM212300 21007KT P6SM FEW250

Decode

Departure Runways

ID Width Length Bearing (true) Bearing (mag) Surface Threshold Offset Overrun Length
05 150 ft / 46 m 7,169 ft / 2,185 m 32.07° 46.38° Asphalt 0 ft / 0 m 190 ft / 58 m
16 150 ft / 46 m 6,081 ft / 1,854 m 141.68° 155.99° Asphalt 564 ft / 172 m 138 ft / 42 m
23 150 ft / 46 m 7,169 ft / 2,185 m 212.08° 226.39° Asphalt 0 ft / 0 m 95 ft / 29 m
34 150 ft / 46 m 6,081 ft / 1,854 m 321.69° 336.00° Asphalt 0 ft / 0 m 0 ft / 0 m

KBID

Details ICAO KBID (BID)
Name Block Island State
Region United States
Timezone America/New_York (UTC-4.0)
Stats Elevation 108 ft / 33 m (AMSL)
Location 41.168139° -71.577612°
Runways 1
Magnetic Variation 14.115° W

METAR

KBID 211056Z AUTO 02008KT 10SM CLR 15/10 A3014 RMK AO2 SLP209 T01500100

Decode

TAF

Not found

Destination Runways

ID Width Length Bearing (true) Bearing (mag) Surface Threshold Offset Overrun Length
10 98 ft / 30 m 2,504 ft / 763 m 83.74° 97.85° Asphalt 0 ft / 0 m 0 ft / 0 m
28 98 ft / 30 m 2,504 ft / 763 m 263.75° 277.86° Asphalt 0 ft / 0 m 0 ft / 0 m

Popular Alternatives